When you browse on this site, cookies collect data to enhance your experience and personalize the content and advertising you see.
Visit our Privacy Policy to learn more. By continuing to use the site, you agree to this use of cookies and data.
  • In Lithuania
  • List of Countries
  • For 7 days
  • Water Temperature
  • Satellite Maps
  • Weather Map
  • Weather Widgets
  • user-avatar
    Login

    Hourly Weather Tatarnovichi

    Today, 16 July, Tuesday

    Time Temperature Precipitation Wind Pressure Humidity
    00:00 +14°C° 0 mm 1 mps 745 mmHg 85%
    01:00 +13°C° 0 mm 1 mps 745 mmHg 86%
    02:00 +13°C° 0 mm 1 mps 745 mmHg 87%
    03:00 +13°C° 0 mm 1 mps 745 mmHg 89%
    04:00 +13°C° 0 mm 1 mps 745 mmHg 90%
    05:00 +13°C° 0 mm 2 mps 744 mmHg 92%
    06:00 +14°C° 0 mm 2 mps 744 mmHg 87%
    07:00 +16°C° 0 mm 2 mps 744 mmHg 83%
    08:00 +18°C° 0 mm 2 mps 744 mmHg 78%
    09:00 +19°C° 0.7 mm 2 mps 744 mmHg 75%
    10:00 +20°C° 0.7 mm 3 mps 744 mmHg 71%
    11:00 +21°C° 0.7 mm 3 mps 744 mmHg 68%
    12:00 +21°C° 0.6 mm 3 mps 743 mmHg 65%
    13:00 +22°C° 0.6 mm 4 mps 743 mmHg 62%
    14:00 +23°C° 0.6 mm 4 mps 743 mmHg 58%
    15:00 +21°C° 0.6 mm 5 mps 743 mmHg 65%
    16:00 +20°C° 0.6 mm 5 mps 743 mmHg 71%
    17:00 +19°C° 0.6 mm 6 mps 742 mmHg 78%
    18:00 +17°C° 0 mm 5 mps 742 mmHg 78%
    19:00 +15°C° 0 mm 4 mps 742 mmHg 79%
    20:00 +14°C° 0 mm 3 mps 742 mmHg 79%
    21:00 +13°C° 0 mm 3 mps 742 mmHg 83%
    22:00 +12°C° 0 mm 3 mps 742 mmHg 86%
    23:00 +11°C° 0 mm 3 mps 742 mmHg 89%

    Tomorrow, 17 July, Wednesday

    Time Temperature Precipitation Wind Pressure Humidity
    00:00 +11°C° 0 mm 3 mps 742 mmHg 92%
    01:00 +11°C° 0 mm 3 mps 743 mmHg 94%
    02:00 +11°C° 0 mm 3 mps 743 mmHg 97%
    03:00 +10°C° 0 mm 3 mps 742 mmHg 97%
    04:00 +10°C° 0 mm 3 mps 742 mmHg 96%
    05:00 +10°C° 0 mm 3 mps 742 mmHg 96%
    06:00 +11°C° 0.1 mm 3 mps 742 mmHg 92%
    07:00 +12°C° 0.1 mm 3 mps 742 mmHg 88%
    08:00 +13°C° 0.1 mm 3 mps 742 mmHg 84%
    09:00 +14°C° 0.6 mm 4 mps 742 mmHg 82%
    10:00 +15°C° 0.6 mm 4 mps 742 mmHg 81%
    11:00 +17°C° 0.6 mm 4 mps 742 mmHg 79%
    12:00 +17°C° 0.9 mm 4 mps 742 mmHg 77%
    13:00 +17°C° 0.9 mm 5 mps 741 mmHg 75%
    14:00 +19°C° 0.9 mm 5 mps 741 mmHg 73%
    15:00 +19°C° 0.5 mm 5 mps 741 mmHg 74%
    16:00 +19°C° 0.5 mm 5 mps 741 mmHg 75%
    17:00 +19°C° 0.5 mm 5 mps 741 mmHg 75%
    18:00 +17°C° 0.3 mm 4 mps 741 mmHg 80%
    19:00 +15°C° 0.3 mm 4 mps 741 mmHg 84%
    20:00 +14°C° 0.3 mm 4 mps 741 mmHg 88%
    21:00 +13°C° 0 mm 4 mps 742 mmHg 90%
    22:00 +12°C° 0 mm 3 mps 742 mmHg 92%
    23:00 +11°C° 0 mm 3 mps 742 mmHg 95%

    Day after tomorrow, 18 July, Thursday

    Time Temperature Precipitation Wind Pressure Humidity
    00:00 +11°C° 0 mm 3 mps 742 mmHg 95%
    01:00 +11°C° 0 mm 3 mps 742 mmHg 95%
    02:00 +11°C° 0 mm 3 mps 742 mmHg 96%
    03:00 +11°C° 0 mm 3 mps 742 mmHg 96%
    04:00 +11°C° 0 mm 4 mps 742 mmHg 97%
    05:00 +11°C° 0 mm 4 mps 742 mmHg 98%
    06:00 +12°C° 0 mm 4 mps 742 mmHg 95%
    07:00 +13°C° 0 mm 4 mps 742 mmHg 92%
    08:00 +14°C° 0 mm 4 mps 742 mmHg 89%
    09:00 +15°C° 0 mm 5 mps 743 mmHg 86%
    10:00 +16°C° 0 mm 5 mps 743 mmHg 83%
    11:00 +17°C° 0 mm 5 mps 743 mmHg 79%
    12:00 +19°C° 0.3 mm 5 mps 743 mmHg 76%
    13:00 +20°C° 0.3 mm 5 mps 743 mmHg 72%
    14:00 +21°C° 0.3 mm 5 mps 743 mmHg 69%
    15:00 +21°C° 0.7 mm 5 mps 743 mmHg 71%
    16:00 +21°C° 0.7 mm 4 mps 743 mmHg 73%
    17:00 +21°C° 0.7 mm 4 mps 743 mmHg 74%
    18:00 +20°C° 0.2 mm 3 mps 743 mmHg 77%
    19:00 +19°C° 0.2 mm 3 mps 743 mmHg 80%
    20:00 +18°C° 0.2 mm 3 mps 744 mmHg 83%
    21:00 +17°C° 0 mm 3 mps 744 mmHg 86%
    22:00 +16°C° 0 mm 3 mps 744 mmHg 89%
    23:00 +14°C° 0 mm 3 mps 744 mmHg 92%

    19 July, Friday

    Time Temperature Precipitation Wind Pressure Humidity
    00:00 +14°C° 0 mm 3 mps 745 mmHg 92%
    01:00 +13°C° 0 mm 3 mps 745 mmHg 93%
    02:00 +13°C° 0 mm 3 mps 745 mmHg 94%
    03:00 +13°C° 0 mm 3 mps 745 mmHg 95%
    04:00 +12°C° 0 mm 3 mps 745 mmHg 95%
    05:00 +12°C° 0 mm 3 mps 745 mmHg 95%
    06:00 +14°C° 0 mm 3 mps 745 mmHg 92%
    07:00 +16°C° 0 mm 3 mps 746 mmHg 88%
    08:00 +18°C° 0 mm 3 mps 746 mmHg 85%
    09:00 +19°C° 0 mm 3 mps 746 mmHg 76%
    10:00 +21°C° 0 mm 3 mps 746 mmHg 68%
    11:00 +22°C° 0 mm 3 mps 746 mmHg 60%
    12:00 +24°C° 0 mm 2 mps 746 mmHg 56%
    13:00 +24°C° 0 mm 2 mps 746 mmHg 52%
    14:00 +25°C° 0 mm 2 mps 746 mmHg 48%
    15:00 +25°C° 0 mm 2 mps 746 mmHg 49%
    16:00 +25°C° 0 mm 2 mps 746 mmHg 49%
    17:00 +25°C° 0 mm 2 mps 746 mmHg 49%
    18:00 +24°C° 0 mm 2 mps 746 mmHg 54%
    19:00 +22°C° 0 mm 1 mps 746 mmHg 59%
    20:00 +20°C° 0 mm 1 mps 747 mmHg 64%
    21:00 +19°C° 0 mm 1 mps 747 mmHg 68%
    22:00 +18°C° 0 mm 1 mps 747 mmHg 73%
    23:00 +16°C° 0 mm 1 mps 747 mmHg 77%

    20 July, Saturday

    Time Temperature Precipitation Wind Pressure Humidity
    00:00 +16°C° 0 mm 1 mps 747 mmHg 79%
    01:00 +15°C° 0 mm 1 mps 747 mmHg 82%
    02:00 +15°C° 0 mm 1 mps 747 mmHg 84%
    03:00 +15°C° 0 mm 1 mps 748 mmHg 84%
    04:00 +15°C° 0 mm 1 mps 748 mmHg 84%
    05:00 +14°C° 0 mm 1 mps 748 mmHg 84%
    06:00 +16°C° 0 mm 1 mps 748 mmHg 79%
    07:00 +19°C° 0 mm 1 mps 748 mmHg 74%
    08:00 +21°C° 0 mm 1 mps 749 mmHg 69%
    09:00 +22°C° 0 mm 1 mps 749 mmHg 65%
    10:00 +24°C° 0 mm 1 mps 749 mmHg 61%
    11:00 +25°C° 0 mm 1 mps 749 mmHg 57%
    12:00 +25°C° 0.1 mm 1 mps 749 mmHg 55%
    13:00 +26°C° 0.1 mm 1 mps 749 mmHg 54%
    14:00 +26°C° 0.1 mm 1 mps 749 mmHg 52%
    15:00 +26°C° 0.1 mm 1 mps 749 mmHg 53%
    16:00 +26°C° 0.1 mm 1 mps 749 mmHg 55%
    17:00 +26°C° 0.1 mm 1 mps 749 mmHg 56%
    18:00 +24°C° 0.1 mm 2 mps 749 mmHg 62%
    19:00 +23°C° 0.1 mm 2 mps 749 mmHg 69%
    20:00 +20°C° 0.1 mm 2 mps 749 mmHg 76%
    21:00 +19°C° 0 mm 2 mps 750 mmHg 78%
    22:00 +18°C° 0 mm 2 mps 750 mmHg 81%
    23:00 +17°C° 0 mm 2 mps 750 mmHg 83%

    21 July, Sunday

    Time Temperature Precipitation Wind Pressure Humidity
    00:00 +17°C° 0 mm 2 mps 750 mmHg 85%
    01:00 +16°C° 0 mm 2 mps 751 mmHg 87%
    02:00 +16°C° 0 mm 2 mps 751 mmHg 89%
    03:00 +16°C° 0 mm 2 mps 751 mmHg 89%
    04:00 +15°C° 0 mm 2 mps 751 mmHg 90%
    05:00 +15°C° 0 mm 2 mps 751 mmHg 90%
    06:00 +17°C° 0 mm 2 mps 751 mmHg 85%
    07:00 +19°C° 0 mm 2 mps 752 mmHg 80%
    08:00 +20°C° 0 mm 2 mps 752 mmHg 75%
    09:00 +23°C° 0 mm 2 mps 752 mmHg 69%
    10:00 +24°C° 0 mm 2 mps 752 mmHg 64%
    11:00 +25°C° 0 mm 2 mps 752 mmHg 59%
    12:00 +26°C° 0 mm 2 mps 752 mmHg 56%
    13:00 +27°C° 0 mm 2 mps 752 mmHg 53%
    14:00 +27°C° 0 mm 2 mps 752 mmHg 49%
    15:00 +27°C° 0 mm 2 mps 752 mmHg 51%
    16:00 +27°C° 0 mm 2 mps 752 mmHg 52%
    17:00 +27°C° 0 mm 2 mps 752 mmHg 54%
    18:00 +25°C° 0 mm 2 mps 752 mmHg 59%
    19:00 +24°C° 0 mm 1 mps 752 mmHg 65%
    20:00 +22°C° 0 mm 1 mps 752 mmHg 71%
    21:00 +21°C° 0 mm 1 mps 753 mmHg 74%
    22:00 +20°C° 0 mm 1 mps 753 mmHg 78%
    23:00 +19°C° 0 mm 1 mps 753 mmHg 81%
    Show more